Flag for U.S.A. Weather past 2 weeks in Chinle, Arizona, U.S.A.

Now
60 °F

Overcast.


Feels Like: 60 °F
Forecast: 46 / 75 °F
Wind: 10 mph from East

Location: Window Rock Airport

Current Time: May 3, 2015 at 2:13:25 PM

Latest Report: May 3, 2015 at 12:53 PM


Visibility: 10 mi

Pressure: 29.87 "Hg

Humidity: 41%

Dew point: 36 °F

Location of ChinleLocation

Historic Weather in Chinle — Graph

°F

Chinle temperature yesterday

Maximum temperature yesterday: 73 °F (at 11:53 AM)
Minimum temperature yesterday: 41 °F (at 6:53 AM)
Average temperature yesterday: 55 °F

Past Weeks' High & Low Weather Summary

 TemperatureHumidityPressure
High79 °F (May 1, 1:53 PM)92% (Apr 26, 5:53 AM)30.29 "Hg (Apr 26, 5:53 AM)
Low25 °F (Apr 20, 5:53 AM)9% (Apr 21, 4:53 PM)29.57 "Hg (Apr 26, 4:53 AM)
Average51 °F47%29.84 "Hg
* Reported Apr 18 12:53 PM — May 3 12:53 PM, Chinle, Weather by CustomWeather, © 2015

Note: Actual official high and low records may vary slightly from our data, if they occured in-between our weather recording intervals... More about our weather records

Advertising

Chinle weather history for previous 24 hours

 ConditionsComfort  
Time TempWeatherWind HumidityBarometerVisibility
12:53 PM
Sun, May 3
60 °FOvercast.10 mph41%29.87 "Hg10 mi
11:53 AM60 °FLight rain. Mostly cloudy.13 mph42%29.88 "Hg9 mi
10:53 AM68 °FSunny.No wind27%29.85 "Hg10 mi
9:53 AM61 °FSunny.No wind48%29.88 "Hg10 mi
8:53 AM53 °FSunny.No wind66%29.91 "Hg10 mi
7:53 AM46 °FSunny.No wind79%29.92 "Hg10 mi
6:53 AM40 °FClear.3 mph89%29.92 "Hg9 mi
5:53 AM40 °FOvercast.No wind89%29.91 "Hg10 mi
4:53 AM41 °FPassing clouds.3 mph89%29.88 "Hg10 mi
3:53 AM43 °FOvercast.No wind89%29.85 "Hg10 mi
2:53 AM43 °FPassing clouds.No wind86%29.84 "Hg10 mi
1:53 AM43 °FClear.No wind89%29.86 "Hg10 mi
12:53 AM46 °FClear.No wind83%29.86 "Hg10 mi
11:53 PM
Sat, May 2
48 °FClear.No wind80%29.83 "Hg10 mi
10:53 PM48 °FPassing clouds.5 mph80%29.85 "Hg10 mi
9:53 PM51 °FPassing clouds.3 mph71%29.84 "Hg10 mi
8:53 PM53 °FScattered clouds.3 mph69%29.86 "Hg10 mi
7:53 PM55 °FPassing clouds.6 mph59%29.91 "Hg10 mi
6:53 PM56 °FMostly cloudy.8 mph55%29.93 "Hg10 mi
5:53 PM55 °FLight rain. Mostly cloudy.12 mph57%29.94 "Hg10 mi
4:53 PM62 °FLight rain. Mostly cloudy.8 mph34%29.88 "Hg10 mi
3:53 PM67 °FScattered clouds.7 mph27%29.80 "Hg10 mi
2:53 PM71 °FScattered clouds.3 mph19%29.80 "Hg10 mi
Weather by CustomWeather, © 2015

See weather overviewHow to use our weather pages